Location: Unspecified
(0.0000°N, 0.0000°E)
Time: 03:50:18
(UTC+00:00)

NTS 1 - Pass Details

Date: 26 May 2026
Orbit: 13477 x 13743 km, 124.9° (Epoch: 9 June)

Event Time Altitude Azimuth Distance (km) Brightness Sun altitude
Rises 00:47:03 0° 149° (SSE) 19,073 ? -65.6°
Reaches altitude 10° 00:58:28 10° 152° (SSE) 17,981 ? -64.1°
Enters shadow 01:45:34 48° 195° (SSW) 14,841 ? -56.1°
Exits shadow 02:28:11 35° 266° (W) 15,597 ? -47.5°
Drops below altitude 10° 02:57:30 10° 288° (WNW) 17,776 ? -41.2°
Sets 03:09:46 0° 295° (WNW) 18,838 ? -38.5°
